When you browse on this site, cookies collect data to enhance your experience and personalize the content and advertising you see.
Visit our Privacy Policy to learn more. By continuing to use the site, you agree to this use of cookies and data.
  • In Hungary
  • List of Countries
  • For 7 days
  • Water Temperature
  • Satellite Maps
  • Weather Map
  • News
  • Weather Widgets
  • user-avatar
    Login

    Hourly Weather Lejkowo

    Today, 14 December, Friday

    Time Temperature Precipitation Wind Pressure Humidity
    00:00 -2°C° 0 mm 2 mps 757 mmHg 80%
    01:00 -2°C° 0 mm 2 mps 757 mmHg 81%
    02:00 -2°C° 0 mm 2 mps 757 mmHg 81%
    03:00 -2°C° 0 mm 2 mps 757 mmHg 82%
    04:00 -2°C° 0 mm 3 mps 757 mmHg 82%
    05:00 -2°C° 0 mm 3 mps 757 mmHg 83%
    06:00 -2°C° 0 mm 3 mps 757 mmHg 83%
    07:00 -2°C° 0 mm 3 mps 757 mmHg 84%
    08:00 -2°C° 0 mm 3 mps 757 mmHg 83%
    09:00 -2°C° 0 mm 3 mps 758 mmHg 82%
    10:00 -2°C° 0 mm 3 mps 758 mmHg 81%
    11:00 -1°C° 0 mm 3 mps 758 mmHg 80%
    12:00 -1°C° 0 mm 3 mps 758 mmHg 80%
    13:00 -1°C° 0 mm 3 mps 758 mmHg 79%
    14:00 -1°C° 0 mm 3 mps 759 mmHg 81%
    15:00 -1°C° 0 mm 2 mps 759 mmHg 82%
    16:00 -1°C° 0 mm 2 mps 759 mmHg 84%
    17:00 -1°C° 0 mm 2 mps 759 mmHg 85%
    18:00 -2°C° 0 mm 2 mps 759 mmHg 86%
    19:00 -2°C° 0 mm 3 mps 759 mmHg 86%
    20:00 -2°C° 0 mm 2 mps 760 mmHg 87%
    21:00 -2°C° 0 mm 2 mps 760 mmHg 87%
    22:00 -2°C° 0 mm 2 mps 760 mmHg 88%
    23:00 -2°C° 0 mm 2 mps 760 mmHg 89%

    Tomorrow, 15 December, Saturday

    Time Temperature Precipitation Wind Pressure Humidity
    00:00 -2°C° 0 mm 2 mps 760 mmHg 89%
    01:00 -2°C° 0 mm 2 mps 760 mmHg 89%
    02:00 -2°C° 0 mm 2 mps 760 mmHg 89%
    03:00 -2°C° 0 mm 2 mps 760 mmHg 90%
    04:00 -2°C° 0 mm 3 mps 760 mmHg 90%
    05:00 -2°C° 0 mm 3 mps 761 mmHg 90%
    06:00 -2°C° 0 mm 3 mps 761 mmHg 90%
    07:00 -2°C° 0 mm 3 mps 761 mmHg 90%
    08:00 -2°C° 0 mm 3 mps 761 mmHg 87%
    09:00 -2°C° 0 mm 3 mps 761 mmHg 85%
    10:00 -2°C° 0 mm 4 mps 762 mmHg 82%
    11:00 -1°C° 0 mm 3 mps 761 mmHg 80%
    12:00 -1°C° 0 mm 3 mps 761 mmHg 78%
    13:00 -1°C° 0 mm 3 mps 761 mmHg 76%
    14:00 -1°C° 0 mm 3 mps 761 mmHg 78%
    15:00 -1°C° 0 mm 3 mps 761 mmHg 79%
    16:00 -2°C° 0 mm 3 mps 761 mmHg 80%
    17:00 -2°C° 0 mm 3 mps 761 mmHg 82%
    18:00 -2°C° 0 mm 3 mps 761 mmHg 83%
    19:00 -2°C° 0 mm 3 mps 761 mmHg 85%
    20:00 -2°C° 0 mm 3 mps 761 mmHg 84%
    21:00 -2°C° 0 mm 3 mps 761 mmHg 84%
    22:00 -2°C° 0 mm 3 mps 761 mmHg 84%
    23:00 -2°C° 0 mm 3 mps 760 mmHg 83%

    Day after tomorrow, 16 December, Sunday

    Time Temperature Precipitation Wind Pressure Humidity
    00:00 -2°C° 0 mm 3 mps 760 mmHg 82%
    01:00 -2°C° 0 mm 3 mps 760 mmHg 81%
    02:00 -3°C° 0 mm 4 mps 760 mmHg 80%
    03:00 -3°C° 0 mm 4 mps 759 mmHg 79%
    04:00 -3°C° 0 mm 4 mps 759 mmHg 78%
    05:00 -3°C° 0 mm 4 mps 759 mmHg 78%
    06:00 -3°C° 0 mm 4 mps 758 mmHg 77%
    07:00 -3°C° 0 mm 4 mps 758 mmHg 76%
    08:00 -4°C° 0.1 mm 5 mps 758 mmHg 77%
    09:00 -4°C° 0.1 mm 5 mps 758 mmHg 78%
    10:00 -4°C° 0.1 mm 6 mps 757 mmHg 79%
    11:00 -4°C° 0.2 mm 6 mps 757 mmHg 80%
    12:00 -4°C° 0.2 mm 5 mps 757 mmHg 82%
    13:00 -4°C° 0.2 mm 5 mps 756 mmHg 83%
    14:00 -4°C° 0.3 mm 5 mps 756 mmHg 85%
    15:00 -5°C° 0.3 mm 5 mps 756 mmHg 86%
    16:00 -5°C° 0.3 mm 5 mps 755 mmHg 87%
    17:00 -5°C° 0.5 mm 5 mps 755 mmHg 88%
    18:00 -5°C° 0.5 mm 5 mps 755 mmHg 90%
    19:00 -4°C° 0.5 mm 4 mps 755 mmHg 91%
    20:00 -4°C° 0.3 mm 4 mps 755 mmHg 91%
    21:00 -4°C° 0.3 mm 4 mps 755 mmHg 91%
    22:00 -4°C° 0.3 mm 4 mps 755 mmHg 91%
    23:00 -4°C° 0.1 mm 4 mps 755 mmHg 91%

    17 December, Monday

    Time Temperature Precipitation Wind Pressure Humidity
    00:00 -4°C° 0.1 mm 4 mps 755 mmHg 91%
    01:00 -4°C° 0.1 mm 4 mps 754 mmHg 91%
    02:00 -4°C° 0 mm 3 mps 754 mmHg 91%
    03:00 -4°C° 0 mm 3 mps 754 mmHg 92%
    04:00 -4°C° 0 mm 3 mps 754 mmHg 92%
    05:00 -4°C° 0 mm 3 mps 754 mmHg 93%
    06:00 -2°C° 0 mm 3 mps 754 mmHg 93%
    07:00 -2°C° 0 mm 2 mps 754 mmHg 94%
    08:00 -2°C° 0 mm 2 mps 754 mmHg 93%
    09:00 -2°C° 0 mm 3 mps 754 mmHg 93%
    10:00 -2°C° 0 mm 3 mps 755 mmHg 92%
    11:00 -2°C° 0 mm 2 mps 755 mmHg 91%
    12:00 -1°C° 0 mm 2 mps 755 mmHg 91%
    13:00 -1°C° 0 mm 2 mps 755 mmHg 90%
    14:00 -1°C° 0 mm 2 mps 755 mmHg 91%
    15:00 -2°C° 0 mm 2 mps 755 mmHg 92%
    16:00 0°C° 0 mm 1 mps 755 mmHg 94%
    17:00 0°C° 0 mm 1 mps 755 mmHg 94%
    18:00 0°C° 0 mm 1 mps 755 mmHg 94%
    19:00 0°C° 0 mm 1 mps 755 mmHg 94%
    20:00 -1°C° 0 mm 1 mps 756 mmHg 94%
    21:00 -1°C° 0 mm 1 mps 756 mmHg 94%
    22:00 -1°C° 0 mm 1 mps 756 mmHg 94%
    23:00 -1°C° 0 mm 1 mps 756 mmHg 94%

    18 December, Tuesday

    Time Temperature Precipitation Wind Pressure Humidity
    00:00 -1°C° 0 mm 1 mps 756 mmHg 94%
    01:00 -2°C° 0 mm 1 mps 757 mmHg 94%
    02:00 -2°C° 0 mm 1 mps 757 mmHg 93%
    03:00 -3°C° 0 mm 0 mps 757 mmHg 93%
    04:00 -3°C° 0 mm 0 mps 757 mmHg 92%
    05:00 -3°C° 0 mm 0 mps 757 mmHg 92%
    06:00 -3°C° 0 mm 0 mps 757 mmHg 92%
    07:00 -3°C° 0 mm 0 mps 758 mmHg 92%
    08:00 -2°C° 0 mm 0 mps 758 mmHg 91%
    09:00 -2°C° 0 mm 0 mps 758 mmHg 89%
    10:00 -2°C° 0 mm 0 mps 758 mmHg 88%
    11:00 -1°C° 0 mm 0 mps 758 mmHg 87%
    12:00 -1°C° 0 mm 0 mps 758 mmHg 85%
    13:00 -1°C° 0 mm 0 mps 758 mmHg 84%
    14:00 -1°C° 0 mm 0 mps 758 mmHg 86%
    15:00 -2°C° 0 mm 0 mps 759 mmHg 88%
    16:00 -3°C° 0 mm 0 mps 759 mmHg 90%
    17:00 -3°C° 0 mm 0 mps 759 mmHg 90%
    18:00 -3°C° 0 mm 0 mps 759 mmHg 91%
    19:00 -2°C° 0 mm 1 mps 759 mmHg 91%
    20:00 -3°C° 0 mm 1 mps 758 mmHg 91%
    21:00 -3°C° 0 mm 1 mps 758 mmHg 91%
    22:00 -3°C° 0 mm 1 mps 758 mmHg 92%
    23:00 -3°C° 0 mm 1 mps 758 mmHg 92%

    19 December, Wednesday

    Time Temperature Precipitation Wind Pressure Humidity
    00:00 -3°C° 0 mm 1 mps 758 mmHg 92%
    01:00 -3°C° 0 mm 1 mps 758 mmHg 92%
    02:00 -6°C° 0 mm 2 mps 758 mmHg 92%
    03:00 -6°C° 0 mm 2 mps 757 mmHg 92%
    04:00 -6°C° 0 mm 2 mps 757 mmHg 92%
    05:00 -6°C° 0 mm 2 mps 757 mmHg 93%
    06:00 -7°C° 0 mm 3 mps 757 mmHg 93%
    07:00 -7°C° 0 mm 3 mps 757 mmHg 93%
    08:00 -6°C° 0 mm 3 mps 757 mmHg 93%
    09:00 -7°C° 0 mm 4 mps 757 mmHg 92%
    10:00 -5°C° 0 mm 4 mps 756 mmHg 92%
    11:00 -5°C° 0 mm 4 mps 756 mmHg 91%
    12:00 -4°C° 0 mm 4 mps 755 mmHg 90%
    13:00 -5°C° 0 mm 5 mps 755 mmHg 90%
    14:00 -5°C° 0 mm 5 mps 754 mmHg 90%
    15:00 -5°C° 0 mm 5 mps 754 mmHg 91%
    16:00 -5°C° 0 mm 5 mps 754 mmHg 91%
    17:00 -5°C° 0 mm 5 mps 754 mmHg 91%
    18:00 -5°C° 0 mm 5 mps 753 mmHg 91%
    19:00 -5°C° 0 mm 5 mps 753 mmHg 91%
    20:00 -5°C° 0 mm 5 mps 753 mmHg 91%
    21:00 -5°C° 0 mm 5 mps 753 mmHg 91%
    22:00 -5°C° 0 mm 5 mps 753 mmHg 91%
    23:00 -5°C° 0 mm 5 mps 753 mmHg 91%
    Show more